CZ-6A DEB, 60817

Orbit data source: Space-Track

CZ-6A DEB, 60817 is space debris in LEO originally from a launch on Tue, 06 Aug 2024 UTC launched from the Taiyaun Space Center, China (TSC). Debris objects in space refer to the collection of defunct objects orbiting the Earth. Examples of debris include non-operational satellites, rocket bodies, and fragments generated from explosions, collisions, or faulty payload assembly.

Loading next visibility...
Identifier
60817, 2024-140GU
Orbit
LEO
Country
Flag of CNCN / PRC
Related business
Manufacturer
SAST
Mission
Spacecraft
Bus & Motor
Unknown
Mass
Unknown
Launch date (UTC)
2024-08-06 (2 years ago)
Launch vehicle
Unknown
Launch site
Taiyaun Space Center, China (TSC)
Object type
Payload
Rocket body
Debris
Shape & HBR
Unknown shape, 0.3 m
Radar Cross Section
Medium (>0.1 m² and <1 m²)

Expand to show TLE details & history
Last TLE update: 12 hours ago

TLE from 12 hours ago
0 CZ-6A DEB
1 60817U 24140GU  26171.33782395  .00001058  00000-0  54176-3 0  9990
2 60817  89.1179 284.4747 0080714 202.3545 157.4117 14.13166549 95309
Epoch: 2026-06-20T08:06Z
TLE epoch observation values (Epoch: 2026-06-20T08:06:27.989Z)
Latitude
-0.00003°
Longitude
-105.69581°
Altitude
905.535 km
Speed
7.372 km/s
True Right ascension
18h 57m 53s
True Declination
0° 00' 00"
Sunlit
Object was in full shadow at epoch
Visualization orbit readout
Latitude
Unknown
Longitude
Unknown
Altitude
Unknown
Speed
Unknown
Apparent Right ascension
Unknown
Apparent Declination
Unknown
Sunlit
N/A
Visualization observer readout
Local Sidereal Time
07:16:33
Azimuth
Unknown
Elevation
Unknown
Doppler factor
Unknown
Orbital elements
Apogee altitude
903.821 km
Perigee altitude
787.211 km
Semi-major axis
7,223.653 km
Eccentricity
0.00807
Inclination
89.1179°
RAAN
284.4747°
Arg. of periapsis
202.3545°
True anomaly
157.76368°
Mean anomaly
157.4117°
Eccentric anomaly
157.58802°
Mean motion
3.53515 °/min
Orbital period
101.83 mins
BSTAR
0.00054176
Loading maneuver chart data...
Computing Atmospheric mass density...
Loading historical data...
Loading historical data...
Loading historical data...
Loading historical data...
Loading historical data...
Loading historical data...
Loading historical data...

Documentation

Showing up to 5 results
|